{"data":{"norad_id":55787,"intl_designator":"2023-028AY","name":"STARLINK-5811","alt_names":[],"object_type":"PAYLOAD","status":"ACTIVE","operator":null,"country":"US","launch_date":"2023-03-03","launch_site_code":"AFWTR","launch_vehicle":null,"mission":null,"orbit_class":"UNKNOWN","rcs_meters":null,"size_class":null,"mass_kg":null,"dimensions":null,"purposes":["comms"],"wikipedia_slug":null,"has_3d_model":false,"image_url":null,"decayed_at":null,"tle_current":{"epoch":"2026-05-25T01:37:16.549824Z","epoch_age_seconds":63089,"freshness":"FRESH","line1":"1 55787U 23028AY  26145.06755266  .00000211  00000+0  25476-4 0  9993","line2":"2 55787  69.9997  12.0117 0002728 270.3300  89.7546 14.98332728178461","mean_motion":14.98332728,"eccentricity":0.0002728,"inclination_deg":69.9997,"raan_deg":12.0117,"arg_perigee_deg":270.33,"mean_anomaly_deg":89.7546,"bstar":2.5476e-5,"rev_number":17846,"period_min":96.106824144603,"perigee_km":570.15144452297,"apogee_km":573.94346516153,"semimajor_km":6950.1844548422,"source":"CELESTRAK","updated_at":"2026-05-25T13:38:17.887614Z"}}}